Torna al catalogo

STARLINK-2700

AttivoComunicazioniVLEO
NORAD 48431·PAYLOAD·🇺🇸 United States

Lanciato May 9, 2021 da Cape Canaveral Space Force Station

Loading…

Prossimi Passaggi (prossime 24 ore)

TLE

AggiornatoSource: CelesTrak SupGP

Epoca: Sep 14, 2026, 14:14 UTC

1 48431C 21040D   26257.59354167  .00001715  00000+0  55176-4 0  2577
2 48431  53.1603 353.6874 0001346  76.4447 309.1564 15.31693805    12

Traccia STARLINK-2700 in tempo reale con AllMySat

Download on the App Store